User: anonymous   Login
Location: Cherry Springs State Park
(41.6616°N, 77.8240°W)
Time: 07:56:22
(UTC-05:00)
Language:

Cosmos 1437 - Orbit

View from above orbital plane
View from above orbital plane
View from above satellite
View from above satellite

Ground track
Ground track

The orbit data is extracted from the following two-line orbital elements,

1 13770U 83003A   16043.09259860  .00015998  00000-0  34343-3 0  9997
2 13770  81.1606  28.6740 0008077 170.7636 189.3758 15.44541611810531
Epoch (UTC): 12 February 2016 02:13:20
Eccentricity: 0.0008077
inclination: 81.1606°
perigee height: 427 km
apogee height: 438 km
right ascension of ascending node: 28.6740°
argument of perigee: 170.7636°
revolutions per day: 15.44541611
mean anomaly at epoch: 189.3758°
orbit number at epoch: 81053

The dashed part of the orbit path shows where the satellite is in the earth's shadow,  

DLR